This is the latest recevied weather packets stored in our database for station/object KA7EII-13. If no packets are shown the sender has not sent any weather packets the latest 10 day(s).
| Time | Temp. | Humidity | Pressure | Rain* | Wind** | Luminosity | Snow |
|---|---|---|---|---|---|---|---|
| 1777687040 | 16.67° C | 20% | 1108.2 hPa | 0 mm | - | 17 W/m² | - |
| 1777686736 | 17.22° C | 20% | 1108.3 hPa | 0 mm | - | 19 W/m² | - |
| 1777686434 | 17.78° C | 19% | 1108.1 hPa | 0 mm | - | 22 W/m² | - |
| 1777686130 | 17.78° C | 21% | 1108.3 hPa | 0 mm | - | 25 W/m² | - |
| 1777685827 | 17.78° C | 21% | 1108.2 hPa | 0 mm | - | 26 W/m² | - |
| 1777685522 | 17.78° C | 19% | 1108.3 hPa | 0 mm | - | 28 W/m² | - |
| 1777685219 | 18.33° C | 18% | 1108.2 hPa | 0 mm | - | 30 W/m² | - |
| 1777684917 | 18.33° C | 19% | 1108.2 hPa | 0 mm | - | 31 W/m² | - |
| 1777684614 | 18.33° C | 18% | 1108.4 hPa | 0 mm | - | 32 W/m² | - |
| 1777684309 | 18.33° C | 17% | 1108.3 hPa | 0 mm | - | 34 W/m² | - |
| 1777684007 | 18.89° C | 19% | 1108.4 hPa | 0 mm | - | 36 W/m² | - |
| 1777683703 | 18.89° C | 18% | 1108.3 hPa | 0 mm | - | 37 W/m² | - |
| 1777683401 | 18.89° C | 18% | 1108.4 hPa | 0 mm | - | 39 W/m² | - |
| 1777683099 | 19.44° C | 19% | 1108.3 hPa | 0 mm | - | 124 W/m² | - |
| 1777682794 | 20° C | 17% | 1108.4 hPa | 0 mm | - | 138 W/m² | - |
| 1777682491 | 19.44° C | 19% | 1108.5 hPa | 0 mm | - | 149 W/m² | - |
| 1777682189 | 19.44° C | 21% | 1108.6 hPa | 0 mm | - | 155 W/m² | - |
| 1777681886 | 20.56° C | 20% | 1108.4 hPa | 0 mm | - | 163 W/m² | - |
| 1777681582 | 20° C | 23% | 1108.3 hPa | 0 mm | - | 170 W/m² | - |
| 1777681280 | 20° C | 23% | 1108.5 hPa | 0 mm | - | 178 W/m² | - |
| 1777680977 | 20° C | 19% | 1108.5 hPa | 0 mm | - | 192 W/m² | - |
| 1777680674 | 20° C | 21% | 1108.5 hPa | 0 mm | - | 203 W/m² | - |
| 1777680373 | 20.56° C | 22% | 1108.3 hPa | 0 mm | - | 217 W/m² | - |
| 1777680069 | 20.56° C | 23% | 1108.5 hPa | 0 mm | - | 223 W/m² | - |
| 1777679765 | 20° C | 20% | 1108.5 hPa | 0 mm | - | 243 W/m² | - |
* Rain latest hour (hover to see other rain measurements)
** Current wind speed in m/s (hover to see current wind gust speed)